STARLINK-32958, 63563

Orbit data source: Space-Track

STARLINK-32958, 63563 is a payload satellite owned by SpaceX/Seattle (US) in LEO that was launched on Sun, 13 Apr 2025 UTC via an FALCON 9 launch vehicle from the Air Force Eastern Test Range (AFETR). Payload-class satellites include a variety of spacecraft equipped with specific instruments for various scientific and technological missions. These include communications satellites like Starlink; space stations such as the ISS; scientific satellites like the Hubble; Earth observation satellites from companies like Planet Labs, Umbra, and HawkEye 360; GPS; miniature CubeSats for education and research; and military/defense satellites.

Loading next visibility...
Identifier
63563, 2025-075R
Orbit
LEO
Country
Flag of USUS
Related business
Manufacturer
SpaceX/Seattle
Mission
Operational Commercial Communications
Bus & Motor
STARLINK V2M, Unknown motor
Mass
730 kg wet, ~700 kg dry
Launch date (UTC)
2025-04-13 (1 year ago)
Launch vehicle
FALCON 9
Launch site
Air Force Eastern Test Range (AFETR)
Object type
Payload
Rocket body
Debris
Shape & HBR
Box + 2 Pan, 17.7 m
Radar Cross Section
33.884 m², Large (>1 m²)

Expand to show TLE details & history
Last TLE update: 11 hours ago

TLE from 11 hours ago
0 STARLINK-32958
1 63563U 25075R   26171.38639513  .00019325  00000-0  70988-3 0  9992
2 63563  43.0025  50.6492 0000661 326.6558  33.4252 15.27582076 67637
Epoch: 2026-06-20T09:16Z
TLE epoch observation values (Epoch: 2026-06-20T09:16:24.539Z)
Latitude
-0°
Longitude
2.94519°
Altitude
482.44 km
Speed
7.626 km/s
True Right ascension
03h 22m 35s
True Declination
0° 00' 00"
Sunlit
Object was in daylight at epoch
Visualization orbit readout
Latitude
Unknown
Longitude
Unknown
Altitude
Unknown
Speed
Unknown
Apparent Right ascension
Unknown
Apparent Declination
Unknown
Sunlit
N/A
Visualization observer readout
Local Sidereal Time
07:13:02
Azimuth
Unknown
Elevation
Unknown
Doppler factor
Unknown
Orbital elements
Apogee altitude
485.441 km
Perigee altitude
484.534 km
Semi-major axis
6,863.125 km
Eccentricity
0.00007
Inclination
43.0025°
RAAN
50.6492°
Arg. of periapsis
326.6558°
True anomaly
33.42937°
Mean anomaly
33.4252°
Eccentric anomaly
33.42729°
Mean motion
3.81734 °/min
Orbital period
94.31 mins
BSTAR
0.00070988
Loading maneuver chart data...
Computing Atmospheric mass density...
Loading historical data...
Loading historical data...
Loading historical data...
Loading historical data...
Loading historical data...
Loading historical data...
Loading historical data...

Documentation

Showing up to 5 results
|